Flag for U.S.A. Weather past 2 weeks in Farmington, New Mexico, U.S.A.

Now
33 °F

Light snow. Fog.


Feels Like: 27 °F
Forecast: 31 / 43 °F
Wind: 7 mph from East

Location: Four Corners Regional Airport

Current Time: Mar 1, 2015 at 9:41:40 AM

Latest Report: Mar 1, 2015 at 8:53 AM


Visibility: 2 mi

Pressure: 30.14 "Hg

Humidity: 96%

Dew point: 32 °F

Location of FarmingtonLocation

Historic Weather in Farmington — Graph

°F

Farmington temperature yesterday

Maximum temperature yesterday: 34 °F (at 2:53 PM)
Minimum temperature yesterday: 29 °F (at 12:53 AM)
Average temperature yesterday: 31 °F

Past Weeks' High & Low Weather Summary

 TemperatureHumidityPressure
High63 °F (Feb 14, 2:53 PM)100% (Feb 23, 9:00 PM)30.35 "Hg (Feb 23, 9:00 PM)
Low16 °F (Feb 17, 6:53 AM)12% (Feb 18, 2:53 PM)29.75 "Hg (Feb 28, 5:00 AM)
Average37 °F61%30.01 "Hg
* Reported Feb 14 8:53 AM — Mar 1 8:02 AM, Farmington, Weather by CustomWeather, © 2015

Note: Actual official high and low records may vary slightly from our data, if they occured in-between our weather recording intervals... More about our weather records

Advertising

Farmington weather history for previous 24 hours

 ConditionsComfort  
Time TempWeatherWind HumidityBarometerVisibility
8:02 AM
Sun, Mar 1
34 °FLight rain. Fog.3 mph92%30.08 "Hg4 mi
7:53 AM34 °FLight rain. Fog.3 mph92%30.11 "Hg6 mi
6:53 AM34 °FOvercast.3 mph92%30.09 "Hg10 mi
5:53 AM34 °FLight rain. Mostly cloudy.6 mph88%30.08 "Hg10 mi
4:53 AM34 °FMostly cloudy.6 mph88%30.05 "Hg10 mi
3:53 AM32 °FIce fog.9 mph96%30.04 "Hg6 mi
2:53 AM33 °FOvercast.8 mph92%30.03 "Hg10 mi
1:53 AM32 °FMostly cloudy.3 mph96%30.04 "Hg9 mi
12:53 AM32 °FPassing clouds.7 mph96%30.03 "Hg8 mi
11:53 PM
Sat, Feb 28
32 °FPassing clouds.3 mph92%30.02 "Hg10 mi
10:53 PM33 °FOvercast.3 mph92%30.01 "Hg10 mi
9:53 PM34 °FMostly cloudy.No wind92%29.98 "Hg10 mi
8:53 PM33 °FMostly cloudy.3 mph92%29.97 "Hg10 mi
7:53 PM33 °FMostly cloudy.9 mph96%29.95 "Hg10 mi
6:53 PM33 °FPassing clouds.9 mph96%29.92 "Hg10 mi
5:53 PM33 °FPartly sunny.10 mph96%29.89 "Hg10 mi
4:53 PM33 °FLight snow. Fog.6 mph96%29.87 "Hg2 mi
3:53 PM34 °FLow clouds.9 mph92%29.85 "Hg10 mi
2:53 PM34 °FLight rain. Low clouds.12 mph88%29.83 "Hg8 mi
2:04 PM33 °FLight snow. Fog.6 mph92%29.80 "Hg4 mi
1:53 PM33 °FLight snow. Fog.9 mph92%29.84 "Hg2 mi
12:53 PM33 °FMostly cloudy.12 mph88%29.85 "Hg10 mi
11:59 AM32 °FLight snow. Ice fog.10 mph92%29.81 "Hg3 mi
11:03 AM30 °FSnow. Ice fog.9 mph96%29.82 "Hg1 mi
10:53 AM30 °FHeavy snow. Ice fog.10 mph96%29.87 "Hg0 mi
10:00 AM31 °FLight snow. Ice fog.12 mph89%29.81 "Hg2 mi
Weather by CustomWeather, © 2015

See weather overviewHow to use our weather pages